Overview Statistics Trail Chart Weather Telemetry Raw packets
 

This is the latest recevied weather packets stored in our database for station/object N4DWK. If no packets are shown the sender has not sent any weather packets the latest 10 day(s).

<< 1 2 3 4 5 >>
Time Temp. Humidity Pressure Rain* Wind** Luminosity Snow
1788618909 27.78° C 79% 1011.9 hPa 0 mm - 128 W/m² -
1788618608 27.78° C 80% 1012 hPa 0 mm - 162 W/m² -
1788618307 27.78° C 80% 1012 hPa 0 mm - 186 W/m² -
1788618008 27.78° C 80% 1012 hPa 0 mm - 83 W/m² -
1788617708 27.22° C 81% 1011.9 hPa 0 mm - 83 W/m² -
1788617408 27.22° C 82% 1011.9 hPa 0 mm - 76 W/m² -
1788617108 27.22° C 81% 1011.7 hPa 0 mm - 72 W/m² -
1788616808 27.22° C 82% 1011.5 hPa 0 mm - 211 W/m² -
1788616507 27.22° C 82% 1011.7 hPa 0 mm - 232 W/m² -
1788616208 26.67° C 83% 1011.6 hPa 0 mm - 120 W/m² -
1788615908 26.67° C 84% 1011.6 hPa 0 mm - 116 W/m² -
1788615609 26.67° C 85% 1011.6 hPa 0 mm - 102 W/m² -
1788615307 26.11° C 85% 1011.6 hPa 0 mm - 49 W/m² -
1788615008 26.11° C 87% 1011.6 hPa 0 mm - 65 W/m² -
1788614708 25.56° C 90% 1011.4 hPa 0 mm - 104 W/m² -
1788614408 25.56° C 91% 1011.6 hPa 0 mm - 153 W/m² -
1788614108 25° C 93% 1011.6 hPa 0 mm - 178 W/m² -
1788613808 25° C 95% 1011.5 hPa 0 mm - 244 W/m² -
1788613508 24.44° C 95% 1011.3 hPa 0 mm - 232 W/m² -
1788613208 24.44° C 95% 1011.2 hPa 0 mm - 197 W/m² -
1788612908 24.44° C 95% 1011.2 hPa 0 mm - 197 W/m² -
1788612608 23.89° C 95% 1011.4 hPa 0 mm - 185 W/m² -
1788612308 23.89° C 95% 1011.4 hPa 0 mm - 107 W/m² -
1788612008 23.33° C 95% 1011.4 hPa 0 mm - 76 W/m² -
1788611708 23.33° C 95% 1011.5 hPa 0 mm - 135 W/m² -

* Rain latest hour (hover to see other rain measurements)
** Current wind speed in m/s (hover to see current wind gust speed)